User: anonymous   Login
Location: Unspecified
(0.0000°N, 0.0000°E)
Time: 22:05:49
(UTC+00:00)
Language:

ETS 8 - Orbit

View from above orbital plane
View from above orbital plane
View from above satellite
View from above satellite

Ground track
Ground track

The orbit data is extracted from the following two-line orbital elements,

1 29656U 06059A   16035.39628162  .00000000  00000-0  10000-3 0  9994
2 29656   4.6582  62.2532 0006211 273.8585  86.1777  1.00265016 33488
Epoch (UTC): 04 February 2016 09:30:38
Eccentricity: 0.0006211
inclination: 4.6582°
perigee height: 35762 km
apogee height: 35814 km
right ascension of ascending node: 62.2532°
argument of perigee: 273.8585°
revolutions per day: 1.00265016
mean anomaly at epoch: 86.1777°
orbit number at epoch: 3348

The dashed part of the orbit path shows where the satellite is in the earth's shadow,  

DLR